Retour au catalogue

COSMOS 970 DEB

ActifLEO
NORAD 10883·DEBRIS·🇷🇺 Russia

Lancé Dec 21, 1977 depuis Baikonur Cosmodrome

Loading…

Prochains Passages (prochaines 24 heures)

TLE

FraisSource: Space-Track

Époque: Sep 14, 2026, 07:49 UTC

1 10883U 77121AE  26257.32596583  .00000139  00000-0  21591-3 0  9995
2 10883  65.8440   7.6049 0110998  49.6627 343.5950 13.76178790434567

Suivez COSMOS 970 DEB en temps réel avec AllMySat

Download on the App Store